Preview of NWS' New Version of Forecast
This preview is not operational and should not be used for support decisions.

Regional Weather Roundup (RWR)

Issued by National Weather Service (NWS)

                            
000
ASUS43 KDMX 241206
RWRIA 

WEATHER ROUNDUP FOR IOWA
NATIONAL WEATHER SERVICE DES MOINES IA
700 AM CDT MON JUN 24 2019

NOTE: "FAIR" INDICATES FEW OR NO CLOUDS BELOW 12,000 FEET WITH NO
SIGNIFICANT WEATHER AND/OR OBSTRUCTIONS TO VISIBILITY.

* - THESE STATIONS ARE NOT NWS STATIONS...THUS NOT UNDER NWS
QUALITY CONTROL.  THEY ALSO DO NOT REPORT WEATHER SUCH 
AS PRECIPITATION OR FOG.  

IAZ001>003-012>014-020>022-031>034-043>046-241300-
   NORTHWEST IOWA
  
CITY           SKY/WX    TMP DP  RH WIND       PRES   REMARKS
CARROLL *      CLOUDY    61  57  88 NW13      29.71S                  
CHEROKEE *     PTSUNNY   59  58  96 N5        29.71F                  
DENISON *      PTSUNNY   61  59  94 W6        29.74S                  
LE MARS *      MOSUNNY   59  59 100 CALM      29.72S                  
SHELDON *      PTSUNNY   59  59 100 NW7       29.70F                  
SIOUX CITY     SUNNY     56  55  97 W3        29.74R                  
6HR MIN TEMP:  56; 6HR MAX TEMP:  61; 6HR PCP:  0.01;                

SPENCER        CLOUDY    61  57  87 NW9       29.70F                  
6HR MIN TEMP:  61; 6HR MAX TEMP:  63; 6HR PCP: TRACE;                

STORM LAKE *   MOSUNNY   59  59 100 NW8       29.68F                  
$$
 
IAZ055>058-069>071-079>083-090>094-241300-
   SOUTHWEST IOWA
  
CITY           SKY/WX    TMP DP  RH WIND       PRES   REMARKS
ATLANTIC *     CLOUDY    61  61 100 NW6       29.74R                  
AUDUBON *      CLOUDY    61  55  82 CALM      29.74S                  
CLARINDA *     CLOUDY    63  59  88 NW6       29.77S                  
COUNCIL BLFS * PTSUNNY   61  61 100 W6        29.75R                  
CRESTON *      CLOUDY    61  59  94 NW12      29.74R                  
HARLAN  *      DRIZZLE   59  59 100 W7        29.75R                  
LAMONI         CLOUDY    63  59  87 NW8       29.73R                  
6HR MIN TEMP:  63; 6HR MAX TEMP:  66;                                

RED OAK *      CLOUDY    61  57  88 W9        29.76R                  
SHENANDOAH *   CLOUDY    63  59  88 W7        29.76S                  
$$
 
IAZ047>049-059>061-072>074-084-241300-
   CENTRAL IOWA
  
CITY           SKY/WX    TMP DP  RH WIND       PRES   REMARKS
AMES           CLOUDY    62  59  90 NW13      29.67F                  
6HR MIN TEMP:  62; 6HR MAX TEMP:  67;                                

ANKENY *       CLOUDY    63  59  88 W10       29.69S                  
BOONE *        CLOUDY    61  61 100 NW13      29.67F FOG              
CHARITON *     CLOUDY    63  63 100 W14G21    29.71R                  
DES MOINES     CLOUDY    62  58  86 W12       29.69R                  
6HR MIN TEMP:  62; 6HR MAX TEMP:  67; 6HR PCP:  0.01;                

GRINNELL*      CLOUDY    64  62  92 W13G22    29.67S                  
KNOXVILLE *    CLOUDY    63  61  94 W14G22    29.68R FOG              
MARSHALLTOWN   CLOUDY    62  62 100 W14G25    29.65R                  
6HR MIN TEMP:  62; 6HR MAX TEMP:  66; 6HR PCP: TRACE;                

NEWTON *       CLOUDY    63  63 100 MISG      29.67S                  
PELLA *        RAIN      65  63  91 W9        29.68S                  
PERRY *        CLOUDY    62  62  98 NW10G17   29.71R                  
$$
 
IAZ004>006-015-016-023>025-035-036-241300-
   NORTH CENTRAL IOWA
  
CITY           SKY/WX    TMP DP  RH WIND       PRES   REMARKS
ALGONA *       CLOUDY    61  59  94 NW15      29.67F                  
CLARION *      CLOUDY    61  61 100 NW8       29.67F                  
ESTHERVILLE    LGT RAIN  58  55  90 NW9       29.68F                  
6HR MIN TEMP:  58; 6HR MAX TEMP:  60; 6HR PCP:  0.04;                

FORT DODGE *   CLOUDY    61  58  90 NW12      29.69S                  
MASON CITY     CLOUDY    62  58  86 NW10      29.66S                  
6HR MIN TEMP:  62; 6HR MAX TEMP:  65;                                

FOREST CITY *  CLOUDY    61  59  94 NW10      29.67S                  
IOWA FALLS *   CLOUDY    62  61  95 NW9       29.67R                  
$$

IAZ007>011-017>019-026>030-037>042-050>054-066-241300-
   NORTHEAST IOWA
  
CITY           SKY/WX    TMP DP  RH WIND       PRES   REMARKS
CEDAR RAPIDS   CLOUDY    66  65  96 W12       29.63R                  
6HR MIN TEMP:  65; 6HR MAX TEMP:  68;                                

CHARLES CITY * CLOUDY    63  63 100 NW10G17   29.63S                  
CLINTON *      CLOUDY    68  67  96 SW6       29.64S                  
DECORAH *      PTSUNNY   64  64 100 VRB6      29.60S                  
DUBUQUE        PTSUNNY   67  66  97 SW7       29.63S                  
6HR MIN TEMP:  62; 6HR MAX TEMP:  67;                                

MONTICELLO *   PTSUNNY   68  68 100 W3        29.62F                  
OELWEIN *      CLOUDY    66  66 100 SW5       29.62F FOG              
WATERLOO       RAIN      67  65  93 W5        29.62S FOG              
6HR MIN TEMP:  67; 6HR MAX TEMP:  69; 6HR PCP:  0.39;                

$$
 
IAZ064-065-067-068-078-241300-
   EAST CENTRAL IOWA
  
CITY           SKY/WX    TMP DP  RH WIND       PRES   REMARKS
DAVENPORT      PTSUNNY   69  66  90 W5        29.66R                  
6HR MIN TEMP:  69; 6HR MAX TEMP:  70; 6HR PCP:  0.02;                

IOWA CITY      PTSUNNY   68  65  90 SW6       29.65S                  
6HR MIN TEMP:  67; 6HR MAX TEMP:  71;                                

MT. PLEASANT * CLOUDY    68  68 100 W9        29.67S                  
MUSCATINE *    CLOUDY    70  66  88 W12       29.65S                  
QUAD CITIES    CLOUDY    71  67  87 SW6       29.64R                  
6HR MIN TEMP:  68; 6HR MAX TEMP:  72; 6HR PCP:  0.02;                

$$
 
IAZ062-063-075>077-085>089-095>099-241300-
   SOUTHEAST IOWA
  
CITY           SKY/WX    TMP DP  RH WIND       PRES   REMARKS
BURLINGTON     PTSUNNY   68  65  90 SW7       29.67R                  
6HR MIN TEMP:  67; 6HR MAX TEMP:  69;                                

FAIRFIELD *    CLOUDY    66  66 100 W6        29.67S                  
FORT MADISON * CLOUDY    66  66 100 SW5       29.68S                  
KEOKUK *       CLOUDY    68  66  94 SW7       29.68R                  
OSKALOOSA *    PTSUNNY   66  63  90 W10       29.67S                  
CENTERVILLE *  FAIR      66  64  94 W10       29.71F                  
OTTUMWA        SUNNY     66  63  90 W13G23    29.67R                  
6HR MIN TEMP:  65; 6HR MAX TEMP:  67;                                

WASHINGTON *   CLOUDY    68  68 100 W9        29.64F                  
$$

ABBREVIATIONS USED IN REMARKS
   TC - TEMPERATURES IN CELSIUS
  WCI - WIND CHILL INDEX
   HX - HEAT INDEX
  VSB - VISIBILITY  
$$